Regional Weather Roundup
Issued by NWS

Home | Current Version | Previous Version | Graphics & Text | Print | Product List | Glossary Off
Versions: 1 2 3 4 5 6 7 8 9 10 11 12 13 14 15 16 17 18 19 20 21 22 23 24 25 26 27 28 29 30 31 32 33 34 35 36 37 38 39 40 41 42 43 44 45 46 47 48 49 50

540
ASUS43 KMPX 091610
RWRMN
WEATHER ROUNDUP FOR MINNESOTA
NATIONAL WEATHER SERVICE TWIN CITIES/CHANHASSEN MN
1000 AM CST FRI DEC 09 2016


NOTE: "FAIR" INDICATES FEW OR NO CLOUDS BELOW 12,000 FEET WITH NO
SIGNIFICANT WEATHER AND/OR OBSTRUCTIONS TO VISIBILITY. N/A MEANS
CURRENT SKY AND/OR WEATHER CONDITIONS ARE NOT AVAILABLE.

MNZ060>063-068>070-091700-
   Twin Cities Metro

CITY           SKY/WX    TMP DP  RH WIND       PRES   REMARKS
TWIN CITIES    LGT SNOW  13   8  81 SW8       30.56S FOG     WCI   2
ST PAUL        CLOUDY    16  12  84 SW7       30.58R WCI   6
CRYSTAL        MOSUNNY   13   6  74 W5        30.55R WCI   5
BLAINE         FLURRIES  16  10  79 W6        30.54R WCI   7
LAKEVILLE      FLURRIES   9   5  85 SW3       30.56S
EDEN PRAIRIE   MOSUNNY   13   7  77 SW6       30.56R WCI   4
SOUTH ST PAUL  CLOUDY    17  11  77 W5        30.56S WCI  10
LAKE ELMO      FLURRIES  18  12  79 W6        30.55S WCI   9
$$
MNZ001>005-007-008-013>017-022>024-027-028-091700-
   Northwest Minnesota

CITY           SKY/WX    TMP DP  RH WIND       PRES   REMARKS
BEMIDJI        LGT SNOW   5   0  82 W5        30.49S WCI  -4
HALLOCK        CLOUDY     3  -2  78 N6        30.58R WCI  -8
ROSEAU         CLOUDY     3  -2  78 NW8       30.54R HAZE    WCI -10
WARROAD        MOSUNNY    1  -4  78 W7        30.53R WCI -11
THIEF RVR FALL FLURRIES   7   3  84 NW8       30.54R WCI  -6
CROOKSTON      CLOUDY     5   1  85 NW8       30.58R WCI  -8
FOSSTON        LGT SNOW   7   1  78 CALM      30.51S
DETROIT LAKES  LGT SNOW   9   3  78 W7        30.52R WCI  -3
MOORHEAD       CLOUDY     5   0  78 NW8       30.59R WCI  -8
PARK RAPIDS    CLOUDY     7   0  73 W5        30.49S WCI  -2
$$
MNZ006-009>011-018-025>026-091700-
   North Central Minnesota

CITY           SKY/WX    TMP DP  RH WIND       PRES   REMARKS
BAUDETTE       CLOUDY     2  -5  72 NW12      30.50R HAZE    WCI -15
FLAG ISLAND    CLOUDY     1  -2  85 W13       30.50S WCI -16
INTL FALLS     CLOUDY     5  -1  76 W8        30.48S HAZE    WCI  -8
WASKISH        CLOUDY     7   0  72 NW6       30.50S WCI  -3
BIG FORK       CLOUDY     7   0  72 CALM      30.49S
LONGVILLE      LGT SNOW   9   1  72 W5        30.50S WCI   0
GRAND RAPIDS   FLURRIES   7   0  73 NW12      30.51R WCI  -8
CRANE LAKE     CLOUDY     7   1  78 W5        30.49S WCI  -2
ORR            CLOUDY     3  -2  78 NW8       30.44S WCI -10
COOK           CLOUDY     5   0  78 W9        30.47S WCI  -9
$$
MNZ012-019>021-037-091700-
   Northeast Minnesota

CITY           SKY/WX    TMP DP  RH WIND       PRES   REMARKS
DULUTH         PTSUNNY   10   3  73 NW12      30.46R WCI  -5
ELY            CLOUDY     9   1  72 W9G16     30.43R WCI  -5
HIBBING        LGT SNOW   5  -1  76 NW14      30.48R WCI -12
EVELETH        MOSUNNY    7  -1  68 NW9       30.48R WCI  -6
DULUTH HARBOR  MOSUNNY   16   5  62 CALM      30.54S
TWO HARBORS    MOSUNNY   16   7  67 W6        30.46R WCI   7
SILVER BAY     MOSUNNY   16   5  62 W5        30.44F WCI   9
GRAND MARAIS     N/A     18   9  68 CALM      30.47R
G MARAIS ARPRT LGT SNOW   9   3  78 CALM      30.36R VSB 3/4
$$
MNZ029>031-032-039>041-046>048-054>057-064-091700-
   West Central Minnesota

CITY           SKY/WX    TMP DP  RH WIND       PRES   REMARKS
FERGUS FALLS   CLOUDY     3   0  85 W6        30.62R HAZE    WCI  -8
WHEATON        SUNNY      3  -2  78 W7        30.62R WCI  -9
MORRIS         CLOUDY     3   0  85 W8        30.58R WCI -10
ELBOW LAKE     CLOUDY     2  -1  84 SW8       30.57R FOG     WCI -11
WADENA         LGT SNOW   7   3  85 W5        30.51S WCI  -2
GLENWOOD       CLOUDY     7   1  78 W7        30.55R WCI  -5
APPLETON       CLOUDY     3  -2  78 W7        30.61R WCI  -9
BENSON         FLURRIES   7   1  78 NW5       30.59R WCI  -2
ORTONVILLE     SUNNY      3  -4  72 CALM      30.59R
MADISON        SUNNY      7   0  72 W7        30.60S WCI  -5
WILLMAR        LGT SNOW   9   5  85 W9        30.58R WCI  -5
$$
MNZ033>034-036-042>043-049>051-058-059-091700-
   Central Minnesota

CITY           SKY/WX    TMP DP  RH WIND       PRES   REMARKS
ST CLOUD       CLOUDY    10   6  84 NW7       30.55R WCI  -1
PAYNESVILLE    PTSUNNY   10   5  81 NW9       30.56R WCI  -3
AITKIN         CLOUDY    12   1  62 NW7       30.49S WCI   2
PINE RIVER     CLOUDY     9   1  72 NW6       30.53S WCI  -1
BRAINERD       CLOUDY    10   4  76 NW9       30.51R WCI  -3
STAPLES        CLOUDY     9   1  72 NW7       30.51S WCI  -3
LONG PRAIRIE   CLOUDY     9   3  78 W5        30.53R WCI   0
LITTLE FALLS   CLOUDY    12   5  73 W5        30.53S WCI   4
LITCHFIELD     MOSUNNY   10   7  85 W7        30.56R WCI   0
BUFFALO        FLURRIES  11   6  81 W6        30.57R WCI   1
MAPLE LAKE     FLURRIES  12   8  86 NW6       30.56S WCI   2
HUTCHINSON     SUNNY     10   6  84 W9        30.57S WCI  -2
$$
MNZ037-044-045-052-053-091700-
   East Central Minnesota

CITY           SKY/WX    TMP DP  RH WIND       PRES   REMARKS
PRINCETON      FLURRIES  12   9  85 W5        30.54R WCI   4
MORA           CLOUDY    14   9  79 CALM      30.54R
CAMBRIDGE      FLURRIES  16   7  67 W6        30.52S WCI   7
RUSH CITY      CLOUDY    16  10  79 W3        30.54R
MOOSE LAKE     CLOUDY    12   5  73 N7        30.50R WCI   2
HINCKLEY       LGT SNOW  16  10  79 NW6       30.52S WCI   7
CLOQUET        CLOUDY    10   1  67 NW8       30.48R WCI  -1
MCGREGOR       CLOUDY    12   5  73 NW9       30.51R WCI   0
$$
MNZ071>073-080-081-089-090-097-098-091700-
   Southwest Minnesota

CITY           SKY/WX    TMP DP  RH WIND       PRES   REMARKS
MONTEVIDEO     CLOUDY     5   1  85 NW6       30.61S WCI  -6
GRANITE FALLS  CLOUDY     5   1  81 W7        30.62R WCI  -7
CANBY          SUNNY      5  -1  75 CALM      30.61R
MARSHALL       SUNNY      3  -2  79 NW8       30.60R WCI -10
REDWOOD FALLS  CLOUDY     5   0  79 W8        30.60R WCI  -8
OLIVIA         LGT SNOW   9   3  78 W7        30.58S WCI  -3
PIPESTONE      CLOUDY     3   0  85 CALM      30.52F
WINDOM         CLOUDY     7   1  78 CALM      30.56S
WORTHINGTON    CLOUDY     5   1  83 VRB3      30.55S
JACKSON        CLOUDY     5   1  85 W5        30.56S WCI  -4
TRACY          SUNNY      6   1  81 NW7       30.58R WCI  -6
SLAYTON        MOSUNNY    3  -1  83 NW3       30.55R
$$
MNZ065>067-074>077-082>085-091>093-091700-
   South Central Minnesota

CITY           SKY/WX    TMP DP  RH WIND       PRES   REMARKS
MANKATO        SUNNY      7   2  80 W10       30.59R WCI  -8
NEW ULM          N/A      7   1  78 W9        30.59S WCI  -7
ST JAMES       MOSUNNY    7   3  85 W7        30.60R WCI  -5
FAIRMONT       SUNNY      7   2  80 W7        30.59S WCI  -5
GLENCOE        SUNNY     10   7  87 W7        30.57R WCI   0
OWATONNA       LGT SNOW  10   5  79 SW7       30.56S WCI   0
WASECA         SUNNY     10   5  79 W8        30.58S WCI  -1
ALBERT LEA     MOSUNNY   12   9  85 W5        30.55S WCI   4
$$
MNZ078>079-086>088-094>096-091700-
   Southeast Minnesota

CITY           SKY/WX    TMP DP  RH WIND       PRES   REMARKS
ROCHESTER      SUNNY     11   7  84 W8        30.54R WCI  -1
RED WING       LGT SNOW  12   9  85 W7        30.56F WCI   2
STANTON        SUNNY     11   5  79 SW6       30.56S WCI   1
DODGE CENTER   LGT SNOW  10   7  85 W3        30.53S
WINONA         SUNNY     18  12  79 W5        30.59S WCI  11
AUSTIN         MOSUNNY   10   7  85 NW3       30.55S
PRESTON        FLURRIES  10   6  82 NW3       30.55R
$$
ABBREVIATIONS USED IN REMARKS
   TC - TEMPERATURES IN CELSIUS
  WCI - WIND CHILL INDEX
   HX - HEAT INDEX
  VSB - VISIBILITY
$$




USA.gov is the U.S. government's official web portal to all federal, state and local government web resources and services.